Regional Weather Roundup
Issued by NWS

Home | Current Version | Previous Version | Text Only | Print | Product List | Glossary Off
Versions: 1 2 3 4 5 6 7 8 9 10 11 12 13 14 15 16 17 18 19 20 21 22 23 24 25 26 27 28 29 30 31 32 33 34 35 36 37 38 39 40 41 42 43 44 45 46 47 48 49 50

000
ASUS43 KMKX 282221
RWRWI

WISCONSIN REGIONAL WEATHER ROUNDUP
NATIONAL WEATHER SERVICE MILWAUKEE/SULLIVAN WI
500 PM CDT THU AUG 28 2014

NOTE: "FAIR" INDICATES FEW OR NO CLOUDS BELOW 12,000 FEET WITH NO
SIGNIFICANT WEATHER AND/OR OBSTRUCTIONS TO VISIBILITY.

WIZ001-002-006>008-014>016-023>028-282300-
NORTHWEST WISCONSIN

CITY           SKY/WX    TMP DP  RH WIND       PRES   REMARKS
SUPERIOR ARPT  CLOUDY    64  58  78 NE8       30.01F
ASHLAND        PTSUNNY   68  55  63 NE12      30.04S
HAYWARD        CLOUDY    70  59  68 SE5       30.03F
SIREN          CLOUDY    72  59  65 SE7       30.00F
RICE LAKE      CLOUDY    69  60  72 E7        30.03S
LADYSMITH      CLOUDY    71  60  67 SE7       30.05F
EAU CLAIRE     LGT RAIN  68  65  90 SE9       30.01F
MENOMONIE      CLOUDY    68  65  90 E9        30.01F
NEW RICHMOND   CLOUDY    69  62  80 E9        30.00F
OSCEOLA        CLOUDY    70  63  79 E8        30.01F
$$

WIZ003>005-009-010-017-018-282300-
NORTH CENTRAL WISCONSIN

CITY           SKY/WX    TMP DP  RH WIND       PRES   REMARKS
WOODRUFF       PTSUNNY   72  58  60 S5        30.07F
RHINELANDER    CLOUDY    67  56  67 S3        30.09F
EAGLE RIVER    PTSUNNY   68  53  57 S6        30.07F
LAND O LAKES   PTSUNNY   69  51  53 S3        30.08F
PHILLIPS       CLOUDY    68  58  70 S6        30.05F
TOMAHAWK       CLOUDY    67  58  75 CALM      30.08F
MEDFORD        DRIZZLE   64  61  87 E3        30.06F
MERRILL        CLOUDY    67  61  79 CALM      30.07F
$$

WIZ029-030-035-036-043>047-282300-
CENTRAL WISCONSIN

CITY           SKY/WX    TMP DP  RH WIND       PRES   REMARKS
WAUSAU         LGT RAIN  68  60  75 SE8       30.06S
MOSINEE        LGT RAIN  66  63  88 E6        30.08F
MARSHFIELD     LGT RAIN  68  63  84 SE7       30.05F
STEVENS POINT  DRIZZLE   67  60  79 E6        30.06F
WAUPACA        CLOUDY    71  61  71 E7        30.06F
WAUTOMA        RAIN      71  63  76 E6        30.06F
WISC RAPIDS    LGT RAIN  69  63  81 SE3       30.06F
CAMP DOUGLAS   CLOUDY    71  66  84 SE8       30.03F
$$

WIZ011>013-019>022-031-037>040-048>050-282300-
NORTHEAST WISCONSIN

CITY           SKY/WX    TMP DP  RH WIND       PRES   REMARKS
ANTIGO         CLOUDY    67  59  75 S5        30.09F
STURGEON BAY   CLOUDY    64  54  68 S9        30.11F
GREEN BAY      CLOUDY    68  58  70 SE13      30.09F
MANITOWOC      CLOUDY    66  55  67 S9        30.11F
APPLETON       CLOUDY    68  55  64 SE10      30.09F
CLINTONVILLE   CLOUDY    68  59  73 SE6       30.07F
OSHKOSH        CLOUDY    69  58  67 SE10      30.07F
$$

WIZ032>034-041-042-053>061-282300-
SOUTHWEST WISCONSIN

CITY           SKY/WX    TMP DP  RH WIND       PRES   REMARKS
LA CROSSE      LGT RAIN  70  65  84 SE7       29.99F
SPARTA         CLOUDY    70  62  75 E6        30.02F
VIROQUA        CLOUDY    68  66  93 E8        30.02F
BOSCOBEL       PTSUNNY   74  64  71 SE6       30.01F
PRAIRIE DU CHI PTSUNNY   73  62  68 SE8G17    29.99S
PLATTEVILLE    FAIR      71  63  76 SE12      30.04R
$$

WIZ056-057-062-063-064-067-068-282300-
SOUTH CENTRAL WISCONSIN

CITY           SKY/WX    TMP DP  RH WIND       PRES   REMARKS
BARABOO/DELLS  CLOUDY    71  61  70 E6        30.04F
LONE ROCK      CLOUDY    76  63  64 SE9       30.01F
WATERTOWN      CLOUDY    69  56  65 E8        30.07S
MADISON        CLOUDY    74  60  61 E10       30.05S
MIDDLETON      FAIR      74  59  58 E14       30.05F
MONROE         CLOUDY    72  61  68 E8        30.04F
JANESVILLE     SUNNY     73  55  53 E9        30.06S
$$

WIZ051-052-058>065-066-070>072-282300-
SOUTHEAST WISCONSIN

CITY           SKY/WX    TMP DP  RH WIND       PRES   REMARKS
MILWAUKEE      PTSUNNY   68  56  65 NE10      30.09F
WAUKESHA       MOSUNNY   66  52  59 E12       30.10F
MILWAUKEE/TIMM SUNNY     68  52  56 E7        30.10F
RACINE         PTSUNNY   68  57  68 E9        30.10F
BURLINGTON     PTSUNNY   68  52  56 E7        30.08F
KENOSHA        MOSUNNY   67  58  72 E10       30.09F
FOND DU LAC    CLOUDY    68  55  63 SE13      30.08F
SHEBOYGAN      CLOUDY    66  53  63 SE8       30.10F
WEST BEND      CLOUDY    64  50  59 E6        30.09F
JUNEAU         DRIZZLE   67  56  68 E13       30.09S
$$

LSZ147-162-282300-
LAKE SUPERIOR

STATION/POSITION TIME  TEMP    WIND        PRES    WAVE
                       AIR SEA DIR/SP/G            HT/PER
                 (UTC) (F)     (DEG/KT/KT) (MB)    (FT/S)
W MID LAKE BUOY  2150   61 60   60/  6/  6 1017.5F   0
DEVILS ISLAND    2200   62      90/ 11/ 13 1017.0F
PORT WING        2140   65      30/ 12/ 14 1016.6F
SAXON HARBOR     2100   67      50/ 11/ 14 1017.3F
$$

LMZ867-665-643>646-282300-
LAKE MICHIGAN

STATION/POSITION TIME  TEMP    WIND        PRES    WAVE
                       AIR SEA DIR/SP/G            HT/PER
                 (UTC) (F)     (DEG/KT/KT) (MB)    (FT/S)
N MID LAKE BUOY  2150   63 66  110/  6/  8 1020.1F   0
NORTHPORT PIER   2100   65     150/  9/ 14 1019.6F
SISTER BAY       2126   70     170/  9/ 12   N/A
KEWAUNEE LAKESHO 2100   65     170/ 10/ 12 1019.1F
SHEBOYGAN LAKESH 2200   65 70  150/  6/  7 1019.5F
ATWATER BUOY     2200   67      90/  8/ 10 1019.8F
MILWAUKEE LAKESH 2200   67      80/  9/ 10   N/A
S MID LAKE BUOY  2150   69 69   50/ 12/ 12 1018.6F   1/ 3
KENOSHA   LAKESH 2200   68      80/ 11/ 12 1018.3F
$$

TC  - TEMPERATURE IN CELSIUS
VSB - VISIBILITY IN STATUTE MILES
WCI - WIND CHILL INDEX
HX  - HEAT INDEX




USA.gov is the U.S. government's official web portal to all federal, state and local government web resources and services.